, FL

(GMT )
Bonifay

Weather History for K1J0 - August, 2019

Change the Weather History Date:

Monday, August 5, 2019

  Actual Average Record
Temperature  
Mean Temperature 80 °F -  
Max Temperature 88 °F - - ()
Min Temperature 73 °F - - ()
Cooling Degree Days 16    
Growing Degree Days 30 (Base 50)    
Moisture  
Dew Point 73 °F    
Average Humidity 81    
Maximum Humidity 94    
Minimum Humidity 59    
Precipitation  
Precipitation 0.07 in - - ()
Sea Level Pressure  
Sea Level Pressure 29.87 in    
Wind  
Wind Speed 2 mph (SW)    
Max Wind Speed 12 mph    
Max Gust Speed -    
Visibility 10 miles    
Events Rain , Thunderstorm    
T = Trace of Precipitation, MM = Missing Value Source: NWS Daily Summary

Daily Weather History Graph

Daily Weather History Graph

Search for Another Location

Airport or City:

Astronomy

Aug. 05, 2019 Rise Set
Actual Time 7:02 AM EDT 8:34 PM EDT
Civil Twilight 6:36 AM EDT 9:00 PM EDT
Nautical Twilight 6:05 AM EDT 9:31 PM EDT
Astronomical Twilight 5:32 AM EDT 10:03 PM EDT
Moon 11:58 AM EDT (8/5) No Moon Set
Length of Visible Light 14h 23m
Length of Day
13h 31m
Waxing Crescent, 28% of the Moon is Illuminated
Aug 5
Waxing Crescent
Aug 7
First Quarter
Aug 15
Full
Aug 23
Last Quarter
Aug 30
New

Hourly Weather History & Observations

Time (EDT) Temp. Heat Index Dew Point Humidity Pressure Visibility Wind Dir Wind Speed Gust Speed Precip Events Conditions
12:58 AM 75.9 °F - 73.0 °F 91% 29.87 in 10.0 mi Calm Calm - N/A   Clear
1:58 AM 75.0 °F - 73.0 °F 94% 29.86 in 10.0 mi Calm Calm - N/A   Clear
2:58 AM 73.9 °F - 72.0 °F 93% 29.84 in 10.0 mi Calm Calm - N/A   Clear
3:58 AM 73.9 °F - 72.0 °F 93% 29.83 in 8.0 mi Calm Calm - N/A   Clear
4:58 AM 73.9 °F - 72.0 °F 93% 29.82 in 10.0 mi Calm Calm - N/A   Clear
6:58 AM 73.9 °F - 72.0 °F 93% 29.86 in 9.0 mi Calm Calm - N/A   Partly Cloudy
7:58 AM 75.9 °F - 73.0 °F 91% 29.85 in 10.0 mi WSW 5.8 mph - N/A   Clear
8:58 AM 79.0 °F - 73.9 °F 84% 29.88 in 10.0 mi Calm Calm - N/A   Partly Cloudy
8:59 AM 79.0 °F - 73.9 °F 84% 29.88 in 10.0 mi Calm Calm - N/A   Partly Cloudy
11:34 AM 84.0 °F 91.2 °F 73.9 °F 72% 30.01 in 10.0 mi Variable 3.5 mph - N/A   Scattered Clouds
11:43 AM 84.0 °F 91.2 °F 73.9 °F 72% 30.01 in 10.0 mi Variable 3.5 mph - N/A   Mostly Cloudy
11:58 AM 84.9 °F 92.1 °F 73.9 °F 69% 29.89 in 10.0 mi West 6.9 mph - N/A   Mostly Cloudy
12:58 PM 88.0 °F 94.7 °F 72.0 °F 59% 29.86 in 10.0 mi Variable 3.5 mph - N/A   Mostly Cloudy
2:58 PM 78.1 °F - 75.0 °F 90% 29.87 in 4.0 mi South 11.5 mph - 0.02 in Rain Light Rain
3:58 PM 84.0 °F 91.9 °F 75.0 °F 74% 29.83 in 10.0 mi Variable 4.6 mph - 0.05 in   Clear
4:58 PM 87.1 °F 95.4 °F 73.9 °F 65% 29.82 in 10.0 mi SSW 9.2 mph - N/A   Partly Cloudy
5:58 PM 84.9 °F 92.1 °F 73.9 °F 69% 29.82 in 10.0 mi SSW 8.1 mph - N/A   Scattered Clouds
6:22 PM 86.0 °F 93.8 °F 73.9 °F 67% 29.95 in 10.0 mi Variable 6.9 mph - N/A Thunderstorm Mostly Cloudy
6:26 PM 86.0 °F 93.4 °F 73.4 °F 66% 29.95 in 10.0 mi Variable 4.6 mph - N/A   Mostly Cloudy
6:30 PM 86.0 °F 93.0 °F 73.0 °F 65% 29.95 in 10.0 mi Variable 3.5 mph - N/A Thunderstorm Thunderstorm
6:58 PM 86.0 °F 93.8 °F 73.9 °F 67% 29.83 in 10.0 mi West 5.8 mph - N/A Thunderstorm Thunderstorm
7:58 PM 79.0 °F - 73.9 °F 84% 29.84 in 10.0 mi ESE 4.6 mph - N/A Thunderstorm Mostly Cloudy
8:58 PM 78.1 °F - 75.0 °F 90% 29.84 in 10.0 mi Calm Calm - N/A   Clear
9:58 PM 77.0 °F - 73.9 °F 90% 29.86 in 10.0 mi Calm Calm - N/A   Clear
10:58 PM 75.9 °F - 73.0 °F 91% 29.85 in 10.0 mi SSW 3.5 mph - N/A   Clear
11:58 PM 75.0 °F - 73.0 °F 94% 29.86 in 10.0 mi Calm Calm - N/A   Clear